FW2897 Weather Reports


time (UTC)temp
F
wind
direction
speed
knots
gust
knots
rain 1hr
in
rain 24hr
in
rain mn
in
humidity
%
barometer
mb
20210723162229 82 233 1.7 6.1 0.00 0.00 0.00 47 1021.7
20210723161709 81 1 2.6 5.2 0.00 0.00 0.00 48 1021.8
20210723161211 81 11 1.7 5.2 0.00 0.00 0.00 46 1021.9
20210723160705 81 268 1.7 7.8 0.00 0.00 0.00 46 1021.9
20210723160206 80 347 1.7 7.8 0.00 0.00 0.00 48 1022.0
20210723155647 81 354 1.7 6.1 0.00 0.00 0.00 47 1022.1
20210723155143 80 349 2.6 6.1 0.00 0.00 0.00 48 1022.0
20210723154619 80 70 2.6 6.1 0.00 0.00 0.00 46 1022.1
20210723154106 80 12 2.6 10.4 0.00 0.00 0.00 47 1022.2
20210723153607 80 17 2.6 10.4 0.00 0.00 0.00 50 1022.2
20210723153047 80 352 2.6 6.1 0.00 0.00 0.00 50 1022.2
20210723152531 80 359 1.7 5.2 0.00 0.00 0.00 49 1022.2
20210723152012 80 333 1.7 5.2 0.00 0.00 0.00 51 1022.3
20210723151522 80 354 0.9 4.3 0.00 0.00 0.00 50 1022.4
20210723150951 80 289 1.7 5.2 0.00 0.00 0.00 53 1022.4
20210723150451 79 16 1.7 5.2 0.00 0.00 0.00 50 1022.4
20210723145953 79 326 1.7 5.2 0.00 0.00 0.00 52 1022.4
20210723145426 79 317 1.7 5.2 0.00 0.00 0.00 53 1022.4
20210723144906 79 54 1.7 7.0 0.00 0.00 0.00 52 1022.5
20210723144342 78 35 1.7 7.0 0.00 0.00 0.00 54 1022.4
20210723143815 78 324 0.9 3.5 0.00 0.00 0.00 56 1022.4
20210723143253 79 359 1.7 5.2 0.00 0.00 0.00 52 1022.4
20210723142740 78 82 2.6 8.7 0.00 0.00 0.00 55 1022.4
20210723142216 78 329 1.7 6.1 0.00 0.00 0.00 52 1022.4
20210723141713 78 346 1.7 7.0 0.00 0.00 0.00 53 1022.5
20210723141147 78 28 1.7 7.0 0.00 0.00 0.00 55 1022.5
20210723140643 78 342 1.7 7.8 0.00 0.00 0.00 55 1022.6
20210723140141 78 127 1.7 7.8 0.00 0.00 0.00 55 1022.5
20210723135628 78 70 1.7 6.1 0.00 0.00 0.00 54 1022.6
20210723135128 77 139 1.7 5.2 0.00 0.00 0.00 57 1022.6
20210723134627 77 83 0.9 4.3 0.00 0.00 0.00 58 1022.7
20210723134103 76 66 0.9 4.3 0.00 0.00 0.00 55 1022.7
20210723133551 76 117 0.9 2.6 0.00 0.00 0.00 56 1022.7
20210723133051 76 46 0.9 2.6 0.00 0.00 0.00 59 1022.7
20210723132525 75 333 0.9 3.5 0.00 0.00 0.00 58 1022.8
20210723132023 74 325 0.9 3.5 0.00 0.00 0.00 60 1022.8
20210723131457 74 280 0.9 2.6 0.00 0.00 0.00 63 1022.9
20210723130951 73 321 0.0 2.6 0.00 0.00 0.00 64 1022.7
20210723130421 72 326 0.9 2.6 0.00 0.00 0.00 64 1022.8
20210723125918 71 30 0.9 2.6 0.00 0.00 0.00 67 1022.8
20210723125415 71 336 0.9 3.5 0.00 0.00 0.00 68 1022.7
20210723124848 70 307 0.9 3.5 0.00 0.00 0.00 69 1022.7
20210723124347 70 345 0.0 2.6 0.00 0.00 0.00 69 1022.7
20210723123818 69 301 0.0 2.6 0.00 0.00 0.00 70 1022.6
20210723123315 69 326 0.0 2.6 0.00 0.00 0.00 71 1022.6
20210723122811 68 334 0.9 3.5 0.00 0.00 0.00 72 1022.5
20210723122243 68 333 0.9 4.3 0.00 0.00 0.00 73 1022.5
20210723121718 68 338 0.9 4.3 0.00 0.00 0.00 72 1022.5
20210723121212 68 345 0.9 1.7 0.00 0.00 0.00 72 1022.5
20210723120646 68 341 0.9 3.5 0.00 0.00 0.00 72 1022.6
20210723120144 67 331 0.9 3.5 0.00 0.00 0.00 72 1022.5
20210723115642 67 1 0.0 1.7 0.00 0.00 0.00 73 1022.4
20210723115118 67 335 0.0 1.7 0.00 0.00 0.00 73 1022.5
20210723114608 67 329 0.0 0.0 0.00 0.00 0.00 74 1022.3
20210723114107 67 329 0.0 0.0 0.00 0.00 0.00 75 1022.3
20210723113539 67 329 0.0 0.0 0.00 0.00 0.00 76 1022.2
20210723113036 66 329 0.0 0.0 0.00 0.00 0.00 76 1022.3
20210723112513 66 329 0.0 0.9 0.00 0.00 0.00 76 1022.2
20210723112013 66 329 0.0 1.7 0.00 0.00 0.00 76 1022.2
20210723111440 66 329 0.0 1.7 0.00 0.00 0.00 76 1022.2
20210723110929 66 338 0.0 1.7 0.00 0.00 0.00 77 1022.2
20210723110431 65 336 0.0 2.6 0.00 0.00 0.00 77 1022.1
20210723105902 65 336 0.0 2.6 0.00 0.00 0.00 78 1022.1
20210723105402 65 346 0.9 2.6 0.00 0.00 0.00 78 1022.0
20210723104836 65 337 0.9 3.5 0.00 0.00 0.00 78 1022.1
20210723104306 64 334 0.0 3.5 0.00 0.00 0.00 80 1021.9
20210723103804 64 333 0.0 0.9 0.00 0.00 0.00 82 1021.8
20210723103300 64 333 0.0 0.9 0.00 0.00 0.00 82 1021.8
20210723102757 64 333 0.0 0.0 0.00 0.00 0.00 82 1021.8
20210723102254 64 333 0.0 0.0 0.00 0.00 0.00 82 1021.6
20210723101752 63 333 0.0 0.0 0.00 0.00 0.00 83 1021.7
20210723101229 63 333 0.0 0.0 0.00 0.00 0.00 83 1021.7
20210723100658 63 333 0.0 0.0 0.00 0.00 0.00 83 1021.6
20210723100201 63 333 0.0 0.9 0.00 0.00 0.00 83 1021.6
20210723095629 63 333 0.0 0.9 0.00 0.00 0.00 83 1021.6
20210723095128 63 333 0.0 0.0 0.00 0.00 0.00 83 1021.6
20210723094622 63 333 0.0 0.0 0.00 0.00 0.00 83 1021.5
20210723094119 63 333 0.0 0.9 0.00 0.00 0.00 83 1021.4
20210723093554 63 333 0.0 0.9 0.00 0.00 0.00 83 1021.4
20210723093051 63 333 0.0 0.9 0.00 0.00 0.00 83 1021.4
20210723092523 63 333 0.0 0.9 0.00 0.00 0.00 84 1021.3
20210723092021 63 333 0.0 0.9 0.00 0.00 0.00 84 1021.4
20210723091453 63 333 0.0 0.9 0.00 0.00 0.00 84 1021.3
20210723090955 62 333 0.0 0.9 0.00 0.00 0.00 84 1021.3
20210723090429 62 333 0.0 0.9 0.00 0.00 0.00 86 1021.2
20210723085910 61 337 0.0 0.0 0.00 0.00 0.00 87 1021.2
20210723085407 61 337 0.0 0.0 0.00 0.00 0.00 87 1021.2
20210723084845 61 337 0.0 0.0 0.00 0.00 0.00 87 1021.2
20210723084342 61 337 0.0 0.0 0.00 0.00 0.00 88 1021.1
20210723083840 61 337 0.0 0.0 0.00 0.00 0.00 88 1021.1
20210723083339 60 337 0.0 0.0 0.00 0.00 0.00 88 1021.1
20210723082821 60 337 0.0 0.0 0.00 0.00 0.00 87 1021.0
20210723082321 61 337 0.0 0.0 0.00 0.00 0.00 87 1021.0
20210723081813 61 337 0.0 0.0 0.00 0.00 0.00 87 1021.0
20210723081313 61 337 0.0 0.0 0.00 0.00 0.00 87 1021.1
20210723080802 61 337 0.0 0.0 0.00 0.00 0.00 87 1021.1
20210723080227 61 337 0.0 0.0 0.00 0.00 0.00 87 1021.0
20210723075727 61 337 0.0 0.0 0.00 0.00 0.00 87 1021.1
20210723075200 61 337 0.0 0.0 0.00 0.00 0.00 87 1021.1
20210723074643 61 337 0.0 0.0 0.00 0.00 0.00 87 1021.1
20210723074142 61 337 0.0 0.0 0.00 0.00 0.00 87 1021.1
20210723073617 61 337 0.0 0.0 0.00 0.00 0.00 88 1021.1
20210723073055 61 337 0.0 0.0 0.00 0.00 0.00 88 1021.0
20210723072539 61 337 0.0 0.0 0.00 0.00 0.00 88 1021.2
20210723072026 61 337 0.0 0.0 0.00 0.00 0.00 88 1021.1
20210723071523 61 337 0.0 0.0 0.00 0.00 0.00 88 1021.1
20210723071023 61 337 0.0 0.0 0.00 0.00 0.00 88 1021.1
20210723070457 61 337 0.0 0.0 0.00 0.00 0.00 88 1021.0
20210723065953 61 337 0.0 0.0 0.00 0.00 0.00 88 1021.0
20210723065452 62 337 0.0 0.0 0.00 0.00 0.00 87 1021.0
20210723064930 62 337 0.0 0.0 0.00 0.00 0.00 87 1021.0
20210723064404 62 337 0.0 0.0 0.00 0.00 0.00 86 1021.0
20210723063902 62 337 0.0 0.0 0.00 0.00 0.00 86 1021.1
20210723063339 62 337 0.0 0.0 0.00 0.00 0.00 86 1021.3
20210723062813 63 337 0.0 0.0 0.00 0.00 0.00 86 1021.2
20210723062245 63 337 0.0 0.0 0.00 0.00 0.00 86 1021.3
20210723061716 63 337 0.0 0.0 0.00 0.00 0.00 85 1021.2
20210723061213 63 337 0.0 0.0 0.00 0.00 0.00 85 1021.3
20210723060650 63 337 0.0 0.0 0.00 0.00 0.00 85 1021.4
20210723060120 64 337 0.0 0.0 0.00 0.00 0.00 84 1021.4
20210723055616 64 337 0.0 0.9 0.00 0.00 0.00 85 1021.4
20210723055113 64 337 0.0 0.9 0.00 0.00 0.00 85 1021.3
20210723054545 64 337 0.0 0.9 0.00 0.00 0.00 84 1021.3
20210723054043 64 337 0.0 0.9 0.00 0.00 0.00 85 1021.4
20210723053517 63 337 0.0 0.9 0.00 0.00 0.00 85 1021.4
20210723052951 63 271 0.0 0.0 0.00 0.00 0.00 85 1021.4
20210723052446 63 271 0.0 0.0 0.00 0.00 0.00 84 1021.4
20210723051920 63 271 0.0 0.0 0.00 0.00 0.00 84 1021.5
20210723051417 64 271 0.0 0.0 0.00 0.00 0.00 84 1021.5
20210723050905 64 271 0.0 0.0 0.00 0.00 0.00 84 1021.5
20210723050407 64 271 0.0 0.0 0.00 0.00 0.00 83 1021.7
20210723045840 64 271 0.0 0.0 0.00 0.00 0.00 83 1021.6
20210723045337 63 271 0.0 0.0 0.00 0.00 0.00 84 1021.6
20210723044809 63 271 0.0 0.0 0.00 0.00 0.00 85 1021.7
20210723044306 63 271 0.0 0.0 0.00 0.00 0.00 84 1021.7
20210723043755 63 271 0.0 0.0 0.00 0.00 0.00 84 1021.6
20210723043258 63 271 0.0 0.0 0.00 0.00 0.00 83 1021.6
20210723042729 63 271 0.0 0.0 0.00 0.00 0.00 82 1021.6
20210723042229 64 271 0.0 0.0 0.00 0.00 0.00 82 1021.6
20210723041659 64 271 0.0 0.0 0.00 0.00 0.00 82 1021.6
20210723041158 64 271 0.0 0.0 0.00 0.00 0.00 83 1021.6
20210723040629 64 271 0.0 0.0 0.00 0.00 0.00 82 1021.7
20210723040126 65 271 0.0 0.0 0.00 0.00 0.00 82 1021.6
20210723035600 65 271 0.0 0.9 0.00 0.00 0.00 83 1021.6
20210723035034 65 271 0.0 0.9 0.00 0.00 0.00 83 1021.6
20210723034529 65 271 0.0 0.0 0.00 0.00 0.00 82 1021.7
20210723034004 65 271 0.0 0.0 0.00 0.00 0.00 82 1021.7
20210723033436 65 271 0.0 0.0 0.00 0.00 0.00 80 1021.7
20210723032908 66 271 0.0 0.0 0.00 0.00 0.00 80 1021.7
20210723032407 66 271 0.0 0.0 0.00 0.00 0.00 80 1021.6
20210723031905 66 271 0.0 0.0 0.00 0.00 0.00 79 1021.7
20210723031400 66 271 0.0 0.0 0.00 0.00 0.00 79 1021.7
20210723030856 66 271 0.0 0.0 0.00 0.00 0.00 79 1021.7
20210723030355 66 271 0.0 0.0 0.00 0.00 0.00 79 1021.7
20210723025827 66 271 0.0 0.0 0.00 0.00 0.00 78 1021.6
20210723025305 66 271 0.0 0.0 0.00 0.00 0.00 78 1021.5
20210723024733 67 271 0.0 0.0 0.00 0.00 0.00 77 1021.4
20210723024232 67 271 0.0 0.0 0.00 0.00 0.00 77 1021.5
20210723023707 67 271 0.0 0.0 0.00 0.00 0.00 77 1021.4
20210723023139 67 271 0.0 0.0 0.00 0.00 0.00 76 1021.5
20210723022634 67 271 0.0 0.0 0.00 0.00 0.00 76 1021.5
20210723022112 67 271 0.0 0.0 0.00 0.00 0.00 76 1021.5
20210723021612 67 271 0.0 0.0 0.00 0.00 0.00 76 1021.4
20210723021102 67 271 0.0 0.0 0.00 0.00 0.00 75 1021.4
20210723020558 68 271 0.0 0.0 0.00 0.00 0.00 73 1021.4
20210723020044 68 271 0.0 0.0 0.00 0.00 0.00 73 1021.4
20210723015528 68 271 0.0 0.0 0.00 0.00 0.00 73 1021.4
20210723015003 68 271 0.0 0.0 0.00 0.00 0.00 73 1021.4
20210723014437 68 271 0.0 0.0 0.00 0.00 0.00 72 1021.3
20210723013935 69 271 0.0 0.0 0.00 0.00 0.00 72 1021.3
20210723013410 69 271 0.0 0.0 0.00 0.00 0.00 71 1021.3
20210723012844 69 271 0.0 0.0 0.00 0.00 0.00 70 1021.3
20210723012319 70 271 0.0 0.0 0.00 0.00 0.00 68 1021.2
20210723011823 70 271 0.0 0.0 0.00 0.00 0.00 68 1021.2
20210723011309 71 271 0.0 0.0 0.00 0.00 0.00 67 1021.2
20210723010807 71 271 0.0 0.0 0.00 0.00 0.00 66 1021.1
20210723010307 72 271 0.0 0.0 0.00 0.00 0.00 65 1021.1
20210723005806 72 271 0.0 0.0 0.00 0.00 0.00 63 1021.0
20210723005241 73 271 0.0 0.9 0.00 0.00 0.00 63 1020.9
20210723004725 73 271 0.0 0.9 0.00 0.00 0.00 62 1021.0
20210723004228 74 271 0.0 0.9 0.00 0.00 0.00 61 1020.9
20210723003701 74 271 0.0 0.9 0.00 0.00 0.00 60 1020.9
20210723003200 75 271 0.0 0.9 0.00 0.00 0.00 59 1020.9
20210723002645 75 271 0.0 1.7 0.00 0.00 0.00 59 1020.9
20210723002125 76 255 0.0 1.7 0.00 0.00 0.00 58 1021.0
20210723001610 76 279 0.9 3.5 0.00 0.00 0.00 57 1021.0
20210723001108 77 284 0.9 3.5 0.00 0.00 0.00 56 1021.0
20210723000608 77 281 0.0 2.6 0.00 0.00 0.00 55 1021.0
20210723000117 77 35 0.0 2.6 0.00 0.00 0.00 54 1020.9
20210722235559 78 281 0.9 3.5 0.00 0.00 0.00 54 1020.8
20210722235050 78 289 0.9 3.5 0.00 0.00 0.00 53 1020.8
20210722234549 79 282 0.9 2.6 0.00 0.01 0.00 52 1020.8
20210722234050 79 278 1.7 2.6 0.00 0.01 0.00 51 1020.8
20210722233551 79 279 0.9 2.6 0.00 0.01 0.00 49 1020.6
20210722233047 79 258 0.9 4.3 0.00 0.01 0.00 50 1020.7
20210722232525 80 259 0.9 3.5 0.00 0.01 0.00 49 1020.6
20210722232001 80 307 0.9 4.3 0.00 0.01 0.00 49 1020.5
20210722231440 80 249 0.9 4.3 0.00 0.01 0.00 49 1020.5
20210722230915 80 284 1.7 4.3 0.00 0.01 0.00 48 1020.4
20210722230352 81 284 0.9 4.3 0.00 0.01 0.00 47 1020.4
20210722225840 81 254 0.9 2.6 0.00 0.01 0.00 48 1020.3
20210722225339 81 293 1.7 7.0 0.00 0.01 0.00 48 1020.2
20210722224840 81 338 2.6 7.0 0.00 0.01 0.00 48 1020.3
20210722224321 82 281 1.7 4.3 0.00 0.01 0.00 49 1020.2
20210722223805 82 283 1.7 6.1 0.00 0.01 0.00 47 1020.2
20210722223307 82 262 1.7 7.0 0.00 0.01 0.00 46 1020.3
20210722222803 82 232 1.7 7.0 0.00 0.01 0.00 47 1020.2
20210722222300 82 323 1.7 4.3 0.00 0.01 0.00 46 1020.2
20210722221755 81 348 0.9 4.3 0.00 0.01 0.00 47 1020.2
20210722221255 81 278 1.7 4.3 0.00 0.01 0.00 48 1020.1
20210722220725 81 227 1.7 7.0 0.00 0.01 0.00 47 1020.2
20210722220223 81 289 0.9 4.3 0.00 0.01 0.00 46 1020.1
20210722215720 81 288 1.7 5.2 0.00 0.01 0.00 46 1020.0
20210722215216 81 320 1.7 5.2 0.00 0.01 0.00 47 1020.0
20210722214651 81 286 1.7 4.3 0.00 0.01 0.00 47 1020.0
20210722214149 82 242 1.7 5.2 0.00 0.01 0.00 45 1020.0
20210722213620 82 335 1.7 5.2 0.00 0.01 0.00 45 1020.0
20210722213117 81 328 1.7 7.0 0.00 0.01 0.00 46 1020.0
20210722212553 82 19 1.7 7.0 0.00 0.01 0.00 44 1020.1
20210722212023 82 8 1.7 6.1 0.00 0.01 0.00 46 1020.0
20210722211521 81 11 2.6 6.1 0.00 0.01 0.00 48 1020.1
20210722210953 81 348 2.6 6.1 0.00 0.01 0.00 48 1020.0
20210722210451 81 75 2.6 6.1 0.00 0.01 0.00 47 1020.0
20210722205925 82 10 2.6 6.1 0.00 0.01 0.00 47 1020.1
20210722205424 82 283 2.6 7.0 0.00 0.01 0.00 48 1020.1
20210722204919 82 268 1.7 7.0 0.00 0.01 0.00 48 1020.1
20210722204354 83 15 0.9 3.5 0.00 0.01 0.00 47 1020.1
20210722203848 83 47 1.7 5.2 0.00 0.01 0.00 47 1020.2
20210722203322 83 37 1.7 5.2 0.00 0.01 0.00 47 1020.1
20210722202820 82 271 1.7 5.2 0.00 0.01 0.00 48 1020.0
20210722202250 82 347 1.7 6.1 0.00 0.01 0.00 50 1020.0
20210722201749 81 8 1.7 6.1 0.00 0.01 0.00 49 1020.1
20210722201225 82 24 2.6 6.1 0.00 0.01 0.00 48 1020.1
20210722200656 81 263 2.6 8.7 0.00 0.01 0.00 48 1020.1
20210722200154 81 353 2.6 8.7 0.00 0.01 0.00 48 1020.1
20210722195630 80 30 1.7 6.1 0.00 0.01 0.00 49 1020.0
20210722195130 80 32 1.7 5.2 0.00 0.01 0.00 51 1020.1
20210722194553 81 25 2.6 10.4 0.00 0.01 0.00 51 1020.0
20210722194026 82 9 1.7 10.4 0.00 0.01 0.00 50 1019.9
20210722193527 83 313 0.9 6.1 0.00 0.01 0.00 47 1020.0
20210722192955 82 103 2.6 7.8 0.00 0.01 0.00 47 1020.0
20210722192455 81 15 1.7 7.8 0.00 0.01 0.00 45 1020.0
20210722191926 82 340 0.9 3.5 0.00 0.01 0.00 47 1019.9
20210722191421 82 91 1.7 4.3 0.00 0.01 0.00 47 1019.9
20210722190918 82 353 1.7 4.3 0.00 0.01 0.00 47 1020.0
20210722190354 82 25 1.7 5.2 0.00 0.01 0.00 46 1020.0
20210722185825 81 334 2.6 5.2 0.00 0.01 0.00 47 1020.1
20210722185258 82 22 1.7 6.1 0.00 0.01 0.00 49 1020.2
20210722184758 81 302 0.9 4.3 0.00 0.01 0.00 49 1020.1
20210722184229 81 296 0.9 5.2 0.00 0.01 0.00 50 1020.1
20210722183725 80 330 2.6 6.1 0.00 0.01 0.00 48 1020.2
20210722183200 81 25 2.6 6.1 0.00 0.01 0.00 48 1020.3
20210722182639 82 290 1.7 6.1 0.00 0.01 0.00 48 1020.2
20210722182139 81 302 1.7 6.1 0.00 0.01 0.00 52 1020.2
20210722181643 81 10 1.7 5.2 0.00 0.01 0.00 49 1020.1
20210722181137 81 358 1.7 7.0 0.00 0.01 0.00 49 1020.3
20210722180609 81 336 1.7 5.2 0.00 0.01 0.00 50 1020.4
20210722180106 81 328 1.7 5.2 0.00 0.01 0.00 51 1020.2
20210722175607 81 200 1.7 3.5 0.00 0.01 0.00 51 1020.1
20210722175110 81 95 0.9 4.3 0.00 0.01 0.00 54 1020.3
20210722174605 81 347 1.7 4.3 0.00 0.01 0.00 52 1020.4
20210722174041 80 322 1.7 5.2 0.00 0.01 0.00 51 1020.3
20210722173542 80 217 1.7 5.2 0.00 0.01 0.00 54 1020.4
20210722173020 80 309 1.7 5.2 0.00 0.01 0.00 52 1020.3
20210722172516 80 313 1.7 5.2 0.00 0.01 0.00 54 1020.4
20210722172019 79 160 0.9 4.3 0.00 0.01 0.00 56 1020.3
20210722171517 79 245 1.7 4.3 0.00 0.01 0.00 56 1020.3
20210722171013 79 335 1.7 5.2 0.00 0.01 0.00 56 1020.4
20210722170511 79 11 0.9 5.2 0.00 0.01 0.00 56 1020.5
20210722170009 78 337 1.7 6.1 0.00 0.01 0.00 56 1020.7
20210722165448 78 321 1.7 6.1 0.00 0.01 0.00 56 1020.7
20210722164951 78 22 0.9 6.1 0.00 0.01 0.00 56 1020.9
20210722164421 78 326 0.9 5.2 0.00 0.01 0.00 56 1020.8
20210722163921 78 32 0.9 3.5 0.00 0.01 0.00 59 1020.8
20210722163405 78 295 0.9 3.5 0.00 0.01 0.00 57 1020.8
20210722162904 77 6 1.7 4.3 0.00 0.01 0.00 58 1021.0